Location: Duac?
(36.9744°N, 30.6500°E)
Time: 01:19:03
(UTC+00:00)

IRS-1C Rocket - Pass Details

Date: 05 August 2024
Orbit: 799 x 805 km, 98.8° (Epoch: 18 September)

Event Time Altitude Azimuth Distance (km) Brightness Sun altitude
Exits shadow 19:13:06 43° 183° (S) 1,112 4.5 -23.0°
Maximum altitude 19:14:49 74° 257° (WSW) 838 4.2 -23.3°
Drops below altitude 10° 19:20:06 10° 343° (NNW) 2,392 7.4 -24.0°
Sets 19:22:28 0° 345° (NNW) 3,327 8.3 -24.3°
